Location: Caltech
(34.1382°N, 118.1253°W)
Time: 19:57:13
(UTC-07:00)

UOSAT-12 - Visible Passes

Search period start: 20 April 2015 00:00
Search period end: 30 April 2015 00:00
Orbit: 596 x 660 km, 64.6° (Epoch: 19 April)

Date Brightness Start Highest point End Pass type
(mag) Time Alt. Az. Time Alt. Az. Time Alt. Az.
20 Apr 10.0 23:08:29 10° N 23:09:05 13° N 23:09:05 13° N visible
21 Apr 10.2 23:28:17 10° NNW 23:28:41 12° NNW 23:28:41 12° NNW visible
22 Apr 9.4 22:09:23 10° N 22:11:01 16° NNE 22:11:01 16° NNE visible
23 Apr 9.2 22:28:43 10° NNW 22:30:42 23° N 22:30:42 23° N visible
24 Apr 9.5 21:11:18 10° NNE 21:12:25 11° NE 21:13:05 11° NE visible
24 Apr 9.4 22:48:39 10° NNW 22:50:24 23° NNW 22:50:24 23° NNW visible
25 Apr 8.7 21:29:28 10° N 21:32:50 22° NE 21:32:50 22° NE visible
25 Apr 9.8 23:09:07 10° NW 23:10:09 16° NW 23:10:09 16° NW visible
26 Apr 7.9 21:48:59 10° NNW 21:52:38 43° NNE 21:52:38 43° NNE visible
27 Apr 9.3 20:30:51 10° NNE 20:32:55 13° NE 20:35:09 10° ENE visible
27 Apr 8.0 22:09:01 10° NW 22:12:28 48° NW 22:12:28 48° NW visible
28 Apr 8.4 20:49:36 10° N 20:53:30 26° NE 20:55:03 22° E visible
28 Apr 9.0 22:29:39 10° NW 22:32:22 25° W 22:32:22 25° W visible
29 Apr 7.2 21:09:15 10° NNW 21:13:50 60° ENE 21:14:59 44° ESE visible
29 Apr 9.9 22:51:55 10° W 22:52:19 11° W 22:52:19 11° W visible
